CAPE
0 0 0 0 0 0 0 0 0 0 0 0 0 18 1075 1554 1501 1591 1402 1150 974 958 1062 1201 1090 1264 1370 1436 1409 1362 1375 1411 1359 1352 1362 1387 1419 1362 1256 1444 1609 1594 1575 1306 1319 1374 1081 1202 1228
0 0 0 0 0 0 0 0 0 0 0 0 1 641 937 1339 1339 1412 1381 1129 910 754 596 1104 966 1199 1367 1393 1363 1300 1303 1247 1227 1240 1283 1283 1306 1186 1078 1102 1307 1506 1476 1369 1354 1112 1111 1082 1147
0 0 0 0 0 0 0 0 0 0 74 94 796 1170 1444 1591 1372 1284 1346 1046 859 604 292 1125 962 1035 1239 1271 1248 1178 1082 981 986 1055 1191 1245 1286 1200 1105 1050 1111 1147 1113 1063 1031 1080 972 902 854
0 0 0 0 0 0 0 0 0 43 63 428 746 1557 1787 1486 1643 1478 1161 900 830 477 261 801 893 931 1110 1181 1125 960 926 849 878 952 1094 1244 1271 1265 1066 1046 1092 1177 1292 836 590 911 834 680 560
0 0 0 0 0 0 0 0 0 0 0 514 1372 1816 1714 1356 1329 1359 1041 769 750 416 406 729 868 947 1094 1147 1014 854 822 820 857 934 985 1134 1248 1255 1207 1188 1243 1246 978 654 577 849 749 553 422
0 0 0 0 0 0 0 0 0 0 0 0 1276 1645 1284 977 1131 1222 1112 1003 897 662 525 719 895 1000 958 919 724 597 619 697 760 789 815 902 956 1017 1005 926 846 744 668 655 797 743 615 454 327
0 0 0 0 0 0 0 0 0 0 0 0 683 1186 981 1727 1220 1160 1218 1155 1087 1008 747 741 703 877 769 499 346 315 420 535 610 706 640 571 531 598 687 639 526 384 326 465 622 506 410 351 195
0 0 0 0 0 0 0 0 0 0 0 0 0 0 0 0 1606 1226 1241 1194 1130 1056 963 859 795 696 723 494 187 187 255 358 420 525 387 266 286 342 328 275 214 259 245 334 480 292 238 175 56
0 0 0 0 0 0 0 0 0 0 0 0 0 0 0 0 0 953 1348 1247 1100 1069 1093 966 976 1042 1017 691 398 108 163 225 273 315 197 8 14 387 211 64 119 207 114 203 303 159 70 22 0
0 0 0 0 0 0 0 0 0 0 0 0 0 0 0 0 0 0 0 566 1134 1101 1130 1158 1150 1098 1045 513 764 435 124 37 63 155 243 17 0 13 11 28 86 109 49 79 81 11 0 10 13
0 0 0 0 0 0 0 0 0 0 0 0 0 0 0 0 0 0 0 0 0 985 1308 1065 1263 1356 1123 624 860 738 350 79 47 149 389 359 277 41 0 65 16 126 14 126 49 26 136 409 306
0 0 0 0 0 0 0 0 0 0 0 0 0 0 0 0 0 0 0 0 0 0 0 0 899 1477 1316 1147 922 791 670 454 168 109 460 459 605 266 2 0 29 201 170 320 279 304 468 718 438
0 0 0 0 0 0 0 0 0 0 0 0 0 0 0 0 0 0 0 0 0 0 0 0 0 160 1500 1702 1281 987 934 705 409 150 230 218 247 420 209 35 47 155 177 359 463 442 650 750 620
0 0 0 0 0 0 0 0 0 0 0 0 0 0 0 0 0 0 0 0 0 0 0 0 0 0 343 1649 1483 1375 1298 986 808 498 165 274 159 226 376 233 152 77 94 157 276 345 451 593 630
0 0 0 0 0 0 0 0 0 0 0 0 0 0 0 0 0 0 0 0 0 0 0 0 0 0 0 1363 1798 1422 1969 1270 1086 815 610 374 252 119 278 340 284 146 116 114 111 191 295 339 381
0 0 0 0 0 0 0 0 0 0 0 0 0 0 0 0 0 0 0 0 0 0 0 0 0 1 0 0 237 1608 1520 1260 1445 1038 875 693 365 122 162 122 278 271 192 165 141 90 92 91 170
0 0 0 0 0 0 0 0 0 0 0 0 0 0 0 0 0 0 0 0 0 0 0 0 0 0 0 0 1 936 1283 1299 1790 1304 980 850 677 345 129 21 44 254 286 229 153 114 87 59 40
0 0 0 0 0 0 0 0 0 0 0 0 0 0 0 0 0 0 0 0 0 0 0 0 0 0 0 0 0 1 1173 1172 1420 1420 1150 923 815 645 370 45 14 49 160 177 200 178 142 102 45
0 0 0 0 0 0 0 0 0 0 0 0 0 0 0 0 0 0 0 0 0 0 0 0 0 0 0 0 0 1 1 15 1017 1168 1271 868 937 767 645 373 45 30 28 90 177 220 220 141 71
0 0 0 0 0 0 0 0 0 0 0 0 0 0 0 0 0 0 0 0 0 0 0 0 0 0 0 0 0 3 5 6 4 973 750 903 806 823 769 765 332 127 24 104 193 247 174 126 77
0 0 0 0 0 0 0 0 0 0 0 0 0 0 0 0 0 0 0 0 0 0 0 0 0 0 0 0 0 1 2 11 161 365 725 680 833 867 726 793 803 540 163 30 162 212 206 75 64
0 0 0 0 0 0 0 0 0 0 0 0 0 0 0 0 0 0 0 0 0 0 0 0 0 0 0 0 0 3 7 9 13 8 7 94 430 477 406 601 723 963 567 256 162 127 207 132 15
0 0 0 0 0 0 0 0 0 0 0 0 0 0 0 0 0 0 0 0 0 0 0 0 0 0 0 0 1 2 3 3 7 16 13 4 1 554 577 407 339 559 819 544 464 227 323 99 74
0 0 0 0 0 0 0 0 0 0 0 0 0 0 0 0 0 0 0 0 0 0 0 0 0 0 0 0 1 5 5 3 4 5 7 22 11 6 333 331 334 389 707 761 785 735 375 225 139
0 0 0 0 0 0 0 0 0 0 0 0 0 0 0 0 0 0 0 0 0 0 0 0 0 0 0 0 0 5 6 4 3 4 12 20 15 12 14 21 525 647 880 927 859 732 623 610 318
0 0 0 0 0 0 0 0 0 0 0 0 0 0 0 0 0 0 3 0 0 0 0 0 0 0 0 0 0 0 6 5 3 6 8 9 14 18 8 4 9 522 672 885 685 643 570 759 795
0 0 0 0 0 0 0 0 0 0 0 0 0 0 0 0 0 1 46 12 0 0 0 0 0 0 0 0 0 0 0 8 10 11 16 11 14 7 10 20 26 8 251 575 517 491 440 460 677
0 0 0 0 0 0 0 0 0 0 0 0 0 0 0 2 16 61 99 95 1 0 0 0 0 0 0 0 0 0 0 0 9 16 14 13 19 12 8 8 16 17 5 150 463 494 584 465 435
0 0 0 0 0 0 0 0 0 0 0 0 0 0 2 6 6 13 72 83 14 3 0 0 0 0 0 0 0 0 0 0 2 9 18 17 13 19 12 13 10 8 7 9 5 249 627 464 422
0 0 0 0 0 0 0 0 0 0 0 0 0 0 0 2 0 2 12 11 20 6 1 0 0 0 0 0 0 0 0 0 0 0 3 19 20 14 12 10 15 12 7 12 11 4 16 307 503
CIN
0 0 0 0 0 0 0 0 0 0 0 0 0 -23 -13 -39 -41 -26 -127 -194 -212 -198 -189 -141 -140 -58 -33 -40 -48 -42 -29 -19 -17 -10 -3 0 0 0 -2 -2 0 0 0 0 -1 0 0 0 0
0 0 0 0 0 0 0 0 0 0 0 0 -4 -48 -17 -62 -110 -123 -132 -191 -206 -220 -232 -140 -185 -72 -34 -41 -43 -37 -31 -23 -29 -14 -2 0 0 -2 -10 -12 -2 -1 0 -1 -1 0 0 0 -2
0 0 0 0 0 0 0 0 0 0 -73 -79 -16 -28 -50 -40 -76 -94 -112 -184 -204 -218 -256 -146 -173 -98 -42 -39 -44 -43 -37 -45 -55 -32 -5 -3 -2 -6 -11 -20 -13 -3 -7 -9 -3 0 -1 -8 -14
0 0 0 0 0 0 0 0 0 -48 -58 -36 -21 -17 -24 -37 -36 -61 -110 -149 -162 -208 -238 -222 -175 -117 -48 -37 -50 -61 -67 -57 -49 -43 -9 -3 -2 -4 -15 -18 -12 -1 0 -34 -81 -16 -36 -60 -83
0 0 0 0 0 0 0 0 0 0 0 -41 -1 0 -10 -36 -49 -47 -82 -113 -112 -182 -195 -152 -149 -113 -57 -39 -68 -80 -72 -66 -38 -23 -23 -4 -1 0 -7 -6 -4 -2 -16 -71 -97 -40 -69 -116 -139
0 0 0 0 0 0 0 0 0 0 0 0 -11 -16 -22 -45 -54 -51 -60 -67 -74 -115 -151 -128 -111 -89 -80 -63 -94 -114 -91 -64 -55 -34 -25 -15 -7 -9 -13 -26 -43 -76 -83 -95 -77 -88 -116 -163 -192
0 0 0 0 0 0 0 0 0 0 0 0 -44 -19 -17 0 -22 -32 -37 -46 -47 -58 -87 -79 -76 -60 -77 -124 -154 -161 -121 -78 -60 -45 -35 -47 -60 -56 -56 -69 -102 -159 -190 -154 -112 -150 -178 -197 -247
0 0 0 0 0 0 0 0 0 0 0 0 0 0 0 0 -1 -14 -10 -13 -14 -18 -30 -37 -34 -39 -32 -69 -191 -188 -142 -101 -79 -55 -85 -121 -106 -94 -111 -153 -176 -181 -202 -193 -151 -203 -225 -253 -348
0 0 0 0 0 0 0 0 0 0 0 0 0 0 0 0 0 -54 0 -1 -5 -6 -8 -15 -15 -18 -21 -32 -92 -211 -174 -134 -115 -95 -137 -53 -42 -42 -95 -195 -216 -191 -239 -206 -187 -237 -308 -380 0
0 0 0 0 0 0 0 0 0 0 0 0 0 0 0 0 0 0 0 -115 0 0 -2 -3 -9 -9 -13 -35 -34 -63 -136 -200 -156 -99 -76 -84 0 -33 -53 -184 -212 -212 -274 -260 -262 -167 0 -51 -227
0 0 0 0 0 0 0 0 0 0 0 0 0 0 0 0 0 0 0 0 0 0 0 -6 -6 -3 -10 -14 -11 -15 -70 -136 -158 -93 -28 -24 -51 -118 0 -115 -165 -110 -223 -123 -209 -186 -127 -48 -44
0 0 0 0 0 0 0 0 0 0 0 0 0 0 0 0 0 0 0 0 0 0 0 0 -29 0 -7 0 -11 -5 -14 -49 -104 -114 -38 -30 -11 -72 -21 0 -114 -75 -78 -48 -72 -69 -43 -32 -59
0 0 0 0 0 0 0 0 0 0 0 0 0 0 0 0 0 0 0 0 0 0 0 0 0 -18 0 0 0 -8 -12 -31 -55 -111 -97 -87 -72 -38 -81 -153 -124 -83 -61 -34 -25 -29 -21 -16 -35
0 0 0 0 0 0 0 0 0 0 0 0 0 0 0 0 0 0 0 0 0 0 0 0 0 0 -88 0 0 0 0 -4 -38 -53 -105 -103 -112 -86 -46 -74 -112 -116 -102 -70 -38 -23 -16 -9 -8
0 0 0 0 0 0 0 0 0 0 0 0 0 0 0 0 0 0 0 0 0 0 0 0 0 0 0 0 0 0 0 0 0 -26 -68 -105 -112 -136 -81 -45 -58 -102 -111 -121 -116 -71 -37 -27 -27
0 0 0 0 0 0 0 0 0 0 0 0 0 0 0 0 0 0 0 0 0 0 0 0 0 0 0 0 -210 0 0 -9 0 0 -14 -73 -115 -146 -131 -108 -64 -54 -83 -105 -119 -127 -102 -82 -51
0 0 0 0 0 0 0 0 0 0 0 0 0 0 0 0 0 0 0 0 0 0 0 0 0 0 0 0 0 -36 -1 -2 -1 -1 -4 -23 -62 -117 -160 -177 -152 -77 -57 -76 -104 -132 -131 -120 -110
0 0 0 0 0 0 0 0 0 0 0 0 0 0 0 0 0 0 0 0 0 0 0 0 0 0 0 0 0 -48 -1 0 -2 -2 0 -4 -22 -49 -100 -171 -207 -163 -85 -83 -79 -93 -117 -122 -127
0 0 0 0 0 0 0 0 0 0 0 0 0 0 0 0 0 0 0 0 0 0 0 0 0 0 0 0 0 0 0 -26 -1 -1 0 -11 -3 -5 -28 -72 -154 -178 -178 -129 -100 -78 -73 -122 -154
0 0 0 0 0 0 0 0 0 0 0 0 0 0 0 0 0 0 0 0 0 0 0 0 0 0 0 0 0 0 0 0 -94 -1 -1 0 -10 -3 -1 -12 -56 -128 -171 -128 -100 -94 -92 -123 -154
0 0 0 0 0 0 0 0 0 0 0 0 0 0 0 0 0 0 0 0 0 0 0 0 0 0 0 0 0 0 0 0 -42 -16 -2 -1 0 -2 -3 -3 -2 -6 -92 -159 -112 -104 -116 -136 -149
0 0 0 0 0 0 0 0 0 0 0 0 0 0 0 0 0 0 0 0 0 0 0 0 0 0 0 0 0 0 0 0 0 -1 0 -26 -6 0 -6 0 -2 0 -3 -49 -108 -130 -107 -118 -196
0 0 0 0 0 0 0 0 0 0 0 0 0 0 0 0 0 0 0 0 0 0 0 0 0 0 0 0 0 0 0 0 0 0 0 0 0 -2 0 -3 -23 -1 0 -3 -12 -27 -43 -120 -127
0 0 0 0 0 0 0 0 0 0 0 0 0 0 0 0 0 0 0 0 0 0 0 0 0 0 0 0 0 0 0 0 0 0 0 0 0 0 0 -3 -10 -3 0 0 0 0 -5 -38 -63
0 0 0 0 0 0 0 0 0 0 0 0 0 0 0 0 0 0 0 0 0 0 0 0 0 0 0 0 0 0 0 0 0 0 0 0 0 0 0 -18 0 0 0 0 -1 -1 0 0 -16
0 0 0 0 0 0 0 0 0 0 0 0 0 0 0 0 0 0 0 0 0 0 0 0 0 0 0 0 0 0 0 0 0 0 0 0 0 0 0 -2 0 0 0 0 -1 -1 0 0 0
0 0 0 0 0 0 0 0 0 0 0 0 0 0 0 0 0 0 0 -6 0 0 0 0 0 0 0 0 0 0 0 0 0 0 0 0 0 0 0 0 -134 0 -10 -1 -7 -4 0 -4 0
0 0 0 0 0 0 0 0 0 0 0 0 0 0 0 0 0 0 0 0 0 0 0 0 0 0 0 0 0 0 0 0 0 0 0 0 0 0 0 0 0 0 -119 -40 0 -10 0 -3 -15
0 0 0 0 0 0 0 0 0 0 0 0 0 0 0 0 0 0 0 0 0 0 0 0 0 0 0 0 0 0 0 0 0 0 0 0 0 0 0 0 0 0 0 0 0 -40 0 0 -3
0 0 0 0 0 0 0 0 0 0 0 0 0 0 0 0 0 0 0 0 0 0 0 0 0 0 0 0 0 0 0 0 0 0 0 0 0 0 0 0 0 0 0 0 0 0 -174 0 0
Wind_Speed
11 8 5 6 5 4 12 8 2 8 2 4 4 5 14 17 11 8 5 4 15 16 15 15 13 11 13 16 16 17 16 16 16 15 15 14 14 14 13 14 15 16 16 17 17 18 17 16 14
7 6 5 4 6 8 12 12 13 10 8 3 3 7 11 12 14 7 7 12 14 15 14 14 14 11 12 15 16 15 16 15 16 15 14 14 13 14 13 14 13 13 15 17 17 17 15 14 14
3 3 5 2 8 10 12 14 12 8 10 7 6 14 11 11 13 6 12 15 15 14 14 15 14 12 11 13 14 15 14 14 15 14 13 13 14 14 13 13 12 13 15 17 15 15 14 13 12
2 4 4 11 18 14 16 14 14 5 12 14 6 15 10 18 8 7 12 13 12 13 13 13 13 13 10 12 14 13 14 12 11 12 12 12 13 14 13 11 11 14 14 14 14 14 14 12 11
2 3 8 15 17 14 17 15 18 19 11 15 17 16 10 13 13 10 11 10 10 11 12 12 10 12 10 10 13 12 12 11 10 10 11 10 12 12 11 10 11 11 11 11 12 13 12 12 11
3 4 13 12 16 14 16 15 16 19 20 24 16 14 11 10 11 7 8 8 8 10 11 11 9 10 10 8 10 12 11 9 10 9 8 10 9 10 10 10 10 10 9 9 12 12 12 11 11
6 4 14 14 13 16 17 11 18 21 21 26 14 16 13 18 10 6 4 8 9 10 9 9 10 9 8 7 7 9 11 9 9 9 8 8 8 8 9 9 9 9 10 10 11 11 11 11 11
3 7 14 7 11 11 14 12 14 20 24 10 17 13 11 19 9 6 4 7 8 8 8 9 9 9 8 9 6 6 8 8 8 8 8 7 7 6 7 8 8 7 7 9 10 10 10 10 10
3 6 11 9 11 11 13 7 11 13 21 24 19 19 16 15 19 9 6 8 6 5 6 6 7 8 8 9 9 7 7 6 7 9 8 9 9 11 11 7 7 6 6 7 9 9 9 9 8
7 9 7 6 14 15 20 18 9 16 21 21 22 21 20 19 19 17 18 11 2 3 2 5 6 7 7 7 10 9 9 9 9 9 11 9 8 8 8 7 5 4 5 8 9 9 9 11 8
7 9 10 11 7 4 9 21 22 7 18 19 19 19 20 21 21 20 17 16 13 12 4 6 6 6 7 7 7 6 6 6 6 9 10 7 7 6 6 6 7 6 7 8 9 9 8 6 5
16 13 12 12 10 11 13 17 22 21 16 14 15 16 19 22 20 20 18 17 16 14 17 20 9 8 9 6 7 7 7 7 7 9 11 7 6 8 7 6 9 7 7 7 9 7 6 7 5
22 17 16 15 15 15 13 19 18 17 15 15 15 18 20 19 19 17 17 17 17 17 17 17 14 16 8 11 7 8 8 8 9 9 11 9 9 8 8 7 7 8 8 7 7 6 7 7 7
18 19 17 10 12 10 16 15 12 13 14 15 17 18 18 19 19 17 18 17 18 17 18 16 15 14 16 11 11 9 8 9 9 9 10 13 10 8 9 9 9 8 7 7 7 7 7 7 6
12 16 15 15 6 6 11 17 14 11 12 14 16 17 16 18 18 19 18 18 18 15 16 17 15 12 13 15 12 9 9 10 9 10 12 14 13 11 11 10 9 9 8 9 7 7 7 6 6
5 2 4 12 9 6 10 10 8 10 11 14 15 14 15 18 17 18 18 17 17 17 18 17 15 14 16 10 12 8 11 9 10 10 10 14 15 14 12 10 10 10 9 9 9 8 8 8 7
4 7 8 6 13 2 4 9 7 8 10 11 13 14 14 16 19 18 18 18 18 17 17 17 17 17 17 14 10 10 11 8 9 10 10 12 15 15 13 11 11 12 10 10 9 9 9 8 8
8 9 8 7 9 6 9 10 7 6 8 10 11 13 14 15 18 17 18 17 17 17 17 17 15 17 15 11 10 7 7 7 9 10 9 13 12 15 14 12 13 12 11 11 10 12 10 9 9
10 9 9 7 6 2 5 7 6 6 7 9 11 13 14 14 15 16 16 16 17 17 18 18 17 18 14 11 12 6 4 9 6 8 11 13 15 15 15 13 13 13 14 14 13 11 13 10 9
7 8 7 4 6 3 2 6 5 5 6 8 10 11 13 15 16 18 19 18 18 18 18 19 18 17 14 12 10 6 8 7 7 9 9 12 15 14 15 15 14 15 13 14 14 14 11 11 10
11 8 4 4 3 3 1 6 3 4 3 6 9 10 12 13 16 17 17 18 18 19 19 17 18 18 15 17 11 11 7 6 6 4 7 10 15 16 16 17 15 14 13 12 14 14 17 12 12
5 6 1 2 6 2 4 2 5 2 3 8 10 11 13 14 14 14 16 17 16 16 16 18 17 16 15 17 14 16 10 11 10 7 8 13 13 15 14 16 15 16 12 14 13 13 14 14 13
6 4 1 2 3 7 5 6 10 3 2 5 8 11 13 14 14 15 14 14 15 15 15 16 17 16 16 16 15 13 13 11 10 10 11 11 11 13 14 15 12 13 11 14 14 13 14 13 13
5 4 5 4 3 4 4 7 9 2 4 3 3 9 12 14 14 13 12 12 13 14 14 14 17 17 16 16 16 15 15 15 12 13 12 9 8 8 13 9 11 12 13 14 13 15 17 14 14
2 4 1 3 3 3 2 6 8 3 5 7 8 9 12 15 14 14 13 11 11 14 14 14 16 16 17 16 16 15 15 15 14 12 11 14 9 10 10 13 9 10 13 13 13 12 13 16 15
7 5 3 4 3 2 3 2 5 6 7 7 10 12 16 16 15 14 10 10 11 12 13 14 15 16 16 17 17 15 15 11 11 13 11 10 10 9 14 8 11 13 14 13 11 10 11 13 13
3 4 3 1 0 5 2 3 5 2 4 7 11 15 17 15 14 12 11 9 10 11 12 12 14 15 16 16 15 15 14 15 13 15 12 10 13 12 15 15 12 10 13 13 11 8 13 14 13
5 4 3 2 1 4 4 5 1 3 7 10 12 12 11 12 12 12 11 9 9 10 11 11 13 14 15 15 14 14 15 15 14 13 14 14 13 14 15 15 14 12 10 12 10 12 15 15 13
5 4 3 1 3 3 5 2 3 2 6 10 10 10 10 10 11 12 10 9 9 9 10 11 13 14 15 15 14 15 15 15 14 14 13 14 15 14 14 15 15 13 12 12 10 11 15 15 14
1 3 5 3 3 3 5 5 6 1 5 6 7 7 9 9 10 11 8 8 10 8 9 11 13 14 14 14 15 14 15 15 15 15 15 15 15 15 14 14 15 15 12 10 11 13 12 15 16
Wind_Direction
315 317 286 241 205 111 69 34 19 15 42 19 334 327 60 32 3 35 82 83 132 130 128 126 110 108 118 117 114 118 119 120 118 114 113 115 114 113 113 108 105 108 110 108 104 103 105 100 92
328 315 231 264 197 123 67 27 30 24 2 319 133 179 49 66 32 91 121 131 133 131 139 129 114 112 116 117 118 120 122 123 118 116 118 119 119 117 117 113 113 116 111 105 105 110 108 101 91
305 281 277 77 62 62 60 30 10 62 51 40 110 48 37 358 11 38 107 139 138 135 137 116 108 108 115 119 119 121 122 120 118 120 123 124 124 122 120 116 113 113 115 110 114 114 112 97 92
331 190 209 105 97 70 49 27 21 56 47 23 135 81 103 26 356 45 130 138 135 136 130 123 111 109 115 121 120 120 116 114 117 123 126 127 127 127 129 124 122 118 118 115 116 119 110 102 99
223 233 112 99 84 64 56 28 30 50 51 31 76 74 63 17 28 92 125 132 135 125 121 132 105 110 111 121 121 117 115 117 117 124 128 132 126 127 125 120 118 117 115 120 125 124 115 108 97
148 277 139 104 86 49 47 28 32 40 52 29 51 78 68 19 37 28 117 120 124 123 134 131 105 107 114 119 122 119 117 118 120 121 127 132 126 123 122 120 117 114 113 121 129 128 124 116 107
70 64 99 117 88 44 16 25 33 45 33 31 24 60 52 28 17 66 105 129 131 133 134 141 140 122 96 98 111 121 122 122 122 121 124 126 122 122 127 126 128 126 125 124 130 129 127 123 118
51 111 113 67 74 44 4 54 41 51 45 52 23 36 10 344 28 41 88 122 126 137 141 148 148 155 153 151 89 106 121 127 126 121 121 115 118 120 129 134 130 125 127 135 136 130 130 125 121
280 110 95 63 47 50 22 61 54 72 63 49 51 42 28 30 17 28 120 127 126 143 148 152 158 160 157 160 141 131 123 116 126 132 118 153 170 174 165 99 133 139 131 135 133 125 122 117 110
72 85 65 50 102 79 53 50 37 73 44 35 36 36 36 37 35 29 22 5 158 144 167 169 188 178 175 172 160 171 162 177 184 181 170 187 156 189 205 134 140 140 137 136 125 121 138 191 154
49 89 104 56 105 47 60 59 40 39 41 33 27 25 31 37 34 31 29 18 359 338 204 212 230 216 211 187 184 184 176 177 187 196 194 196 182 176 205 173 188 184 191 168 170 161 191 170 171
102 77 66 65 121 82 76 76 61 53 55 37 38 32 34 35 35 26 21 20 8 3 5 350 305 195 236 213 203 200 196 190 193 195 199 198 203 183 200 195 195 203 194 178 195 185 184 178 182
94 103 84 90 86 84 81 70 69 46 35 36 33 36 35 33 33 29 19 19 12 13 5 352 338 333 230 237 213 221 215 201 204 193 197 209 211 200 200 203 205 208 201 205 209 199 193 189 185
110 94 78 68 71 64 73 63 53 42 27 33 31 32 36 32 28 24 19 14 10 9 3 353 339 339 313 233 242 243 221 210 207 204 203 211 214 205 213 208 214 213 209 216 224 225 207 209 198
112 113 81 40 68 56 307 44 45 32 40 40 37 28 28 32 31 27 14 10 5 5 1 358 347 345 350 279 229 224 250 233 217 216 207 206 211 209 222 221 216 216 210 221 224 227 242 234 216
130 132 148 47 26 15 224 75 54 31 40 44 37 37 29 26 29 24 18 10 5 4 360 358 354 357 353 336 323 230 227 241 233 226 216 211 213 219 212 220 223 222 215 211 218 214 218 227 229
37 99 75 104 27 21 345 114 77 56 49 55 46 36 30 26 21 20 17 13 6 7 359 358 357 359 353 347 335 298 235 221 234 231 224 220 219 214 223 223 220 224 221 215 218 219 225 217 230
124 117 85 60 25 43 75 97 93 74 56 51 44 34 28 24 19 14 13 16 8 7 2 0 358 358 350 353 336 338 266 245 245 233 221 227 227 220 218 228 226 219 222 222 217 224 217 236 227
101 106 115 87 30 305 77 97 90 69 46 41 35 30 28 26 22 14 15 15 11 12 3 1 359 359 351 353 354 344 329 325 248 245 224 217 229 229 225 227 222 224 225 223 216 222 230 222 235
96 106 91 98 27 275 64 107 92 57 58 43 25 35 26 18 15 14 9 12 11 12 8 1 358 359 357 352 341 330 308 284 283 251 224 222 221 225 227 228 229 218 226 225 220 215 224 226 217
63 51 57 26 24 80 192 157 143 86 75 28 29 26 31 26 12 9 9 9 8 11 7 3 0 358 1 354 344 340 334 330 321 332 281 225 228 222 224 223 225 228 221 223 219 219 218 224 223
96 15 292 233 242 82 307 98 169 77 90 41 35 27 21 16 16 11 3 4 9 9 7 1 358 2 2 356 350 347 343 337 330 318 301 318 220 227 226 230 225 227 224 227 220 221 227 224 230
47 321 286 209 158 188 64 252 102 211 218 33 35 27 19 14 7 5 3 358 356 1 1 359 357 360 3 0 356 347 346 346 330 324 321 327 342 247 221 221 224 227 231 228 232 228 220 225 232
329 179 152 172 219 206 86 325 123 35 344 285 345 3 2 2 356 348 357 352 353 352 354 357 356 359 359 359 358 353 346 337 339 340 333 337 326 317 271 223 217 218 223 227 229 233 232 228 232
52 202 176 204 205 34 85 274 40 313 274 291 317 325 339 342 344 333 343 348 349 352 349 349 354 354 357 356 355 355 350 340 335 344 335 334 336 340 331 317 233 235 227 226 231 231 234 231 232
43 11 23 284 295 4 190 237 91 306 278 275 281 302 323 329 328 326 332 335 344 353 353 350 349 349 355 354 353 349 351 348 339 341 337 327 333 325 323 322 330 247 233 233 227 233 237 231 233
62 59 17 136 70 260 149 134 225 15 322 311 326 323 328 331 334 325 329 336 341 353 358 351 348 349 351 352 349 348 346 348 345 340 338 335 329 326 333 325 319 320 307 243 236 231 235 235 232
27 89 188 76 250 260 215 252 273 20 345 342 338 343 341 342 340 341 332 333 336 345 353 352 351 350 348 349 348 346 342 342 341 341 343 337 331 328 327 322 320 320 330 315 241 232 237 230 230
157 152 105 129 297 291 301 153 122 35 348 344 346 348 343 340 338 334 329 333 327 337 350 353 351 348 347 347 346 343 341 340 339 340 342 341 333 334 327 326 322 323 334 323 330 287 234 229 226
285 197 198 247 150 263 306 291 137 85 335 338 341 348 346 340 339 338 336 330 340 339 345 351 351 348 345 342 342 341 338 338 338 336 337 340 337 332 331 330 328 326 334 338 339 335 306 254 224